Time,TemperatureF,DewpointF,PressureIn,WindDirection,WindDirectionDegrees,WindSpeedMPH,WindSpeedGustMPH,Humidity,HourlyPrecipIn,Conditions,Clouds,dailyrainin,SoftwareType,DateUTC
2013-03-06 00:00:00,41.1,38.7,29.59,WNW,302,4.0,4.0,91,0.11,,,0.41,Wunderground v.1.13,2013-03-06 05:00:00,
2013-03-06 00:10:00,39.5,36.8,29.59,NW,309,3.0,3.0,90,0.08,,,0.01,Wunderground v.1.13,2013-03-06 05:10:00,
2013-03-06 00:20:00,37.3,34.4,29.61,WNW,295,4.0,9.0,89,0.06,,,0.02,Wunderground v.1.13,2013-03-06 05:20:00,
2013-03-06 00:30:00,36.1,33.7,29.61,NNW,329,6.0,6.0,91,0.05,,,0.02,Wunderground v.1.13,2013-03-06 05:30:00,
2013-03-06 00:40:00,35.4,33.3,29.62,West,269,2.0,3.0,92,0.00,,,0.02,Wunderground v.1.13,2013-03-06 05:40:00,
2013-03-06 00:50:00,34.8,33.0,29.63,NW,309,4.0,4.0,93,0.00,,,0.02,Wunderground v.1.13,2013-03-06 05:50:00,
2013-03-06 01:00:00,34.2,32.4,29.63,WNW,287,3.0,3.0,93,0.00,,,0.02,Wunderground v.1.13,2013-03-06 06:00:00,
2013-03-06 01:10:00,33.9,32.4,29.63,NW,319,2.0,2.0,94,0.00,,,0.02,Wunderground v.1.13,2013-03-06 06:10:00,
2013-03-06 01:20:00,33.7,32.4,29.64,WNW,300,1.0,1.0,95,0.00,,,0.02,Wunderground v.1.13,2013-03-06 06:20:00,
2013-03-06 01:30:00,33.8,32.5,29.64,SSW,197,1.0,1.0,95,0.00,,,0.02,Wunderground v.1.13,2013-03-06 06:30:00,
2013-03-06 01:40:00,33.9,32.4,29.64,West,265,1.0,2.0,94,0.00,,,0.02,Wunderground v.1.13,2013-03-06 06:40:00,
2013-03-06 01:50:00,33.9,32.4,29.65,SW,219,1.0,1.0,94,0.00,,,0.02,Wunderground v.1.13,2013-03-06 06:50:00,
2013-03-06 02:00:00,33.8,32.3,29.65,South,181,0.0,1.0,94,0.00,,,0.02,Wunderground v.1.13,2013-03-06 07:00:00,
2013-03-06 02:10:00,33.8,32.3,29.65,South,186,1.0,1.0,94,0.00,,,0.02,Wunderground v.1.13,2013-03-06 07:10:00,
2013-03-06 02:20:00,33.7,32.2,29.65,WNW,283,1.0,2.0,94,0.00,,,0.02,Wunderground v.1.13,2013-03-06 07:20:00,
2013-03-06 02:30:00,33.4,31.9,29.65,WSW,252,1.0,1.0,94,0.00,,,0.02,Wunderground v.1.13,2013-03-06 07:30:00,
2013-03-06 02:40:00,33.3,31.8,29.65,WNW,286,1.0,1.0,94,0.00,,,0.02,Wunderground v.1.13,2013-03-06 07:40:00,
2013-03-06 02:50:00,33.2,31.9,29.65,West,272,0.0,0.0,95,0.00,,,0.02,Wunderground v.1.13,2013-03-06 07:50:00,
2013-03-06 03:00:00,33.0,31.7,29.65,West,281,1.0,1.0,95,0.00,,,0.02,Wunderground v.1.13,2013-03-06 08:00:00,
2013-03-06 03:10:00,32.9,31.6,29.65,NW,308,1.0,1.0,95,0.00,,,0.02,Wunderground v.1.13,2013-03-06 08:10:00,
2013-03-06 03:20:00,32.8,31.5,29.65,NW,310,0.0,1.0,95,0.00,,,0.02,Wunderground v.1.13,2013-03-06 08:20:00,
2013-03-06 03:30:00,32.6,31.3,29.65,NW,313,0.0,0.0,95,0.00,,,0.02,Wunderground v.1.13,2013-03-06 08:30:00,
2013-03-06 03:40:00,32.5,31.2,29.65,NW,313,0.0,0.0,95,0.00,,,0.02,Wunderground v.1.13,2013-03-06 08:40:00,
2013-03-06 03:49:00,32.5,31.2,29.65,NW,313,0.0,0.0,95,0.00,,,0.02,Wunderground v.1.13,2013-03-06 08:49:00,
2013-03-06 04:00:00,32.4,31.4,29.65,NW,314,0.0,0.0,96,0.00,,,0.02,Wunderground v.1.13,2013-03-06 09:00:00,
2013-03-06 04:10:00,32.4,31.1,29.66,WNW,299,0.0,0.0,95,0.00,,,0.02,Wunderground v.1.13,2013-03-06 09:10:00,
2013-03-06 04:19:00,32.4,31.4,29.66,WSW,246,0.0,0.0,96,0.00,,,0.02,Wunderground v.1.13,2013-03-06 09:19:00,
2013-03-06 04:30:00,32.3,31.0,29.66,NW,310,0.0,2.0,95,0.00,,,0.02,Wunderground v.1.13,2013-03-06 09:30:00,
2013-03-06 04:40:00,31.9,30.4,29.67,WNW,301,0.0,0.0,94,0.00,,,0.02,Wunderground v.1.13,2013-03-06 09:40:00,
2013-03-06 04:50:00,31.8,30.5,29.67,NNW,329,0.0,1.0,95,0.00,,,0.02,Wunderground v.1.13,2013-03-06 09:50:00,
2013-03-06 05:00:00,31.7,30.2,29.68,NNW,327,0.0,0.0,94,0.00,,,0.02,Wunderground v.1.13,2013-03-06 10:00:00,
2013-03-06 05:10:00,31.6,30.3,29.69,NNW,336,0.0,0.0,95,0.00,,,0.02,Wunderground v.1.13,2013-03-06 10:10:00,
2013-03-06 05:20:00,31.6,30.3,29.69,NNW,336,0.0,0.0,95,0.00,,,0.02,Wunderground v.1.13,2013-03-06 10:20:00,
2013-03-06 05:30:00,31.6,30.3,29.69,NW,325,0.0,0.0,95,0.00,,,0.02,Wunderground v.1.13,2013-03-06 10:30:00,
2013-03-06 05:40:00,31.5,30.2,29.70,NW,324,0.0,0.0,95,0.00,,,0.02,Wunderground v.1.13,2013-03-06 10:40:00,
2013-03-06 05:50:00,31.5,30.5,29.70,West,279,0.0,0.0,96,0.00,,,0.02,Wunderground v.1.13,2013-03-06 10:50:00,
2013-03-06 05:59:00,31.4,30.1,29.71,West,279,0.0,0.0,95,0.00,,,0.02,Wunderground v.1.13,2013-03-06 10:59:00,
2013-03-06 06:00:00,31.4,30.1,29.71,North,-999,0.0,0.0,95,0.00,,,-99.99,WeatherLink 6.0.2,2013-03-06 11:00:00,
2013-03-06 06:10:00,31.2,29.9,29.72,West,281,0.0,0.0,95,0.00,,,0.02,Wunderground v.1.13,2013-03-06 11:10:00,
2013-03-06 06:20:00,31.2,29.9,29.72,WNW,283,0.0,0.0,95,0.00,,,0.02,Wunderground v.1.13,2013-03-06 11:20:00,
2013-03-06 06:30:00,31.0,29.7,29.73,WNW,283,0.0,0.0,95,0.00,,,0.02,Wunderground v.1.13,2013-03-06 11:30:00,
2013-03-06 06:40:00,31.0,29.7,29.73,WNW,283,0.0,0.0,95,0.00,,,0.02,Wunderground v.1.13,2013-03-06 11:40:00,
2013-03-06 06:50:00,30.9,29.6,29.74,WNW,283,0.0,0.0,95,0.00,,,0.02,Wunderground v.1.13,2013-03-06 11:50:00,
2013-03-06 07:00:00,30.9,29.6,29.74,WNW,283,0.0,0.0,95,0.00,,,0.02,Wunderground v.1.13,2013-03-06 12:00:00,
2013-03-06 07:09:00,30.9,29.6,29.76,WNW,283,0.0,0.0,95,0.00,,,0.02,Wunderground v.1.13,2013-03-06 12:09:00,
2013-03-06 07:19:00,31.0,29.7,29.76,WNW,283,0.0,0.0,95,0.00,,,0.02,Wunderground v.1.13,2013-03-06 12:19:00,
2013-03-06 07:30:00,31.0,29.7,29.77,WNW,283,0.0,0.0,95,0.00,,,0.02,Wunderground v.1.13,2013-03-06 12:30:00,
2013-03-06 07:40:00,31.2,29.9,29.78,WNW,283,0.0,0.0,95,0.00,,,0.02,Wunderground v.1.13,2013-03-06 12:40:00,
2013-03-06 07:50:00,31.4,30.4,29.78,WNW,283,0.0,0.0,96,0.00,,,0.02,Wunderground v.1.13,2013-03-06 12:50:00,
2013-03-06 08:00:00,31.6,30.3,29.78,WNW,283,0.0,0.0,95,0.00,,,0.02,Wunderground v.1.13,2013-03-06 13:00:00,
2013-03-06 08:09:00,31.6,30.3,29.79,WNW,283,0.0,0.0,95,0.00,,,0.02,Wunderground v.1.13,2013-03-06 13:09:00,
2013-03-06 08:20:00,32.0,30.7,29.80,WNW,283,0.0,0.0,95,0.00,,,0.02,Wunderground v.1.13,2013-03-06 13:20:00,
2013-03-06 08:29:00,32.1,30.6,29.81,WNW,283,0.0,0.0,94,0.00,,,0.02,Wunderground v.1.13,2013-03-06 13:29:00,
2013-03-06 08:30:00,32.1,30.6,29.82,North,-999,0.0,0.0,94,0.00,,,-99.99,WeatherLink 6.0.2,2013-03-06 13:30:00,
2013-03-06 08:40:00,32.5,31.0,29.82,WNW,283,0.0,0.0,94,0.00,,,0.02,Wunderground v.1.13,2013-03-06 13:40:00,
2013-03-06 08:49:00,32.7,30.9,29.82,WNW,283,0.0,0.0,93,0.00,,,0.02,Wunderground v.1.13,2013-03-06 13:49:00,
2013-03-06 09:00:00,32.6,30.8,29.83,WNW,283,0.0,0.0,93,0.00,,,0.02,Wunderground v.1.13,2013-03-06 14:00:00,
2013-03-06 09:10:00,33.0,31.2,29.83,WNW,283,0.0,0.0,93,0.00,,,0.02,Wunderground v.1.13,2013-03-06 14:10:00,
2013-03-06 09:20:00,33.3,31.2,29.83,WNW,283,0.0,0.0,92,0.00,,,0.02,Wunderground v.1.13,2013-03-06 14:20:00,
2013-03-06 09:30:00,33.5,31.2,29.84,WNW,283,0.0,0.0,91,0.00,,,0.02,Wunderground v.1.13,2013-03-06 14:30:00,
2013-03-06 09:40:00,33.4,31.3,29.85,WNW,283,0.0,0.0,92,0.00,,,0.03,Wunderground v.1.13,2013-03-06 14:40:00,
2013-03-06 09:50:00,33.6,31.3,29.85,WNW,283,0.0,0.0,91,0.00,,,0.03,Wunderground v.1.13,2013-03-06 14:50:00,
2013-03-06 10:00:00,33.7,31.1,29.86,WNW,283,0.0,0.0,90,0.00,,,0.03,Wunderground v.1.13,2013-03-06 15:00:00,
2013-03-06 10:10:00,33.8,31.2,29.87,WNW,283,0.0,0.0,90,0.00,,,0.03,Wunderground v.1.13,2013-03-06 15:10:00,
2013-03-06 10:20:00,33.6,31.0,29.87,WNW,283,0.0,0.0,90,0.00,,,0.03,Wunderground v.1.13,2013-03-06 15:20:00,
2013-03-06 10:30:00,33.9,31.8,29.88,WNW,283,0.0,0.0,92,0.00,,,0.03,Wunderground v.1.13,2013-03-06 15:30:00,
2013-03-06 10:40:00,34.5,32.4,29.88,WNW,283,0.0,0.0,92,0.00,,,0.04,Wunderground v.1.13,2013-03-06 15:40:00,
2013-03-06 10:50:00,34.8,32.4,29.88,NW,307,1.0,1.0,91,0.05,,,0.05,Wunderground v.1.13,2013-03-06 15:50:00,
2013-03-06 11:00:00,34.7,31.8,29.89,NW,319,1.0,2.0,89,0.06,,,0.06,Wunderground v.1.13,2013-03-06 16:00:00,
2013-03-06 11:10:00,34.2,31.3,29.90,WNW,301,1.0,1.0,89,0.05,,,0.07,Wunderground v.1.13,2013-03-06 16:10:00,
2013-03-06 11:20:00,34.1,31.7,29.90,WNW,299,1.0,1.0,91,0.04,,,0.07,Wunderground v.1.13,2013-03-06 16:20:00,
2013-03-06 11:30:00,34.0,31.6,29.91,NW,306,1.0,1.0,91,0.00,,,0.08,Wunderground v.1.13,2013-03-06 16:30:00,
2013-03-06 11:40:00,33.9,31.3,29.92,NW,306,0.0,2.0,90,0.00,,,0.08,Wunderground v.1.13,2013-03-06 16:40:00,
2013-03-06 11:49:00,33.8,31.5,29.93,NW,306,0.0,1.0,91,0.00,,,0.08,Wunderground v.1.13,2013-03-06 16:49:00,
2013-03-06 12:00:00,33.9,31.6,29.93,NW,316,1.0,1.0,91,0.00,,,0.08,Wunderground v.1.13,2013-03-06 17:00:00,
2013-03-06 12:10:00,33.7,31.1,29.94,WNW,290,1.0,2.0,90,0.00,,,0.09,Wunderground v.1.13,2013-03-06 17:10:00,
2013-03-06 12:20:00,33.7,31.1,29.94,WNW,302,1.0,1.0,90,0.00,,,0.09,Wunderground v.1.13,2013-03-06 17:20:00,
2013-03-06 12:30:00,33.9,31.3,29.95,NW,320,1.0,2.0,90,0.00,,,0.09,Wunderground v.1.13,2013-03-06 17:30:00,
2013-03-06 12:39:00,34.0,31.4,29.95,NNW,329,1.0,1.0,90,0.00,,,0.09,Wunderground v.1.13,2013-03-06 17:39:00,
2013-03-06 12:50:00,34.0,31.6,29.95,West,281,2.0,2.0,91,0.00,,,0.09,Wunderground v.1.13,2013-03-06 17:50:00,
2013-03-06 13:00:00,34.4,32.0,29.95,NW,309,2.0,2.0,91,0.00,,,0.10,Wunderground v.1.13,2013-03-06 18:00:00,
2013-03-06 13:09:00,34.6,31.7,29.95,NW,311,1.0,2.0,89,0.00,,,0.10,Wunderground v.1.13,2013-03-06 18:09:00,
2013-03-06 13:20:00,34.8,31.9,29.95,WNW,293,1.0,1.0,89,0.00,,,0.10,Wunderground v.1.13,2013-03-06 18:20:00,
2013-03-06 13:30:00,34.6,31.7,29.96,NW,314,2.0,2.0,89,0.00,,,0.10,Wunderground v.1.13,2013-03-06 18:30:00,
2013-03-06 13:40:00,34.7,32.3,29.96,NW,314,1.0,1.0,91,0.00,,,0.10,Wunderground v.1.13,2013-03-06 18:40:00,
2013-03-06 13:50:00,34.6,32.2,29.97,NW,319,1.0,2.0,91,0.00,,,0.10,Wunderground v.1.13,2013-03-06 18:50:00,
2013-03-06 14:00:00,34.6,32.5,29.97,NW,316,1.0,1.0,92,0.00,,,0.11,Wunderground v.1.13,2013-03-06 19:00:00,
2013-03-06 14:09:00,34.5,32.1,29.97,NW,306,1.0,2.0,91,0.00,,,0.11,Wunderground v.1.13,2013-03-06 19:09:00,
2013-03-06 14:20:00,34.5,32.1,29.98,NW,313,1.0,1.0,91,0.00,,,0.11,Wunderground v.1.13,2013-03-06 19:20:00,
2013-03-06 14:30:00,34.5,32.4,29.98,WNW,303,1.0,1.0,92,0.00,,,0.11,Wunderground v.1.13,2013-03-06 19:30:00,
2013-03-06 14:40:00,34.6,32.2,29.98,WNW,299,1.0,1.0,91,0.00,,,0.11,Wunderground v.1.13,2013-03-06 19:40:00,
2013-03-06 14:49:00,34.8,32.4,29.99,WNW,298,2.0,2.0,91,0.00,,,0.11,Wunderground v.1.13,2013-03-06 19:49:00,
2013-03-06 15:00:00,34.9,32.8,30.00,NW,309,1.0,2.0,92,0.00,,,0.11,Wunderground v.1.13,2013-03-06 20:00:00,
2013-03-06 15:10:00,35.1,33.0,30.00,NW,304,1.0,1.0,92,0.00,,,0.12,Wunderground v.1.13,2013-03-06 20:10:00,
2013-03-06 15:19:00,35.3,32.9,30.01,NNW,329,1.0,3.0,91,0.00,,,0.12,Wunderground v.1.13,2013-03-06 20:19:00,
2013-03-06 15:30:00,35.4,33.0,30.01,NW,310,2.0,2.0,91,0.00,,,0.12,Wunderground v.1.13,2013-03-06 20:30:00,
2013-03-06 15:40:00,35.4,33.3,30.02,NW,323,2.0,2.0,92,0.00,,,0.12,Wunderground v.1.13,2013-03-06 20:40:00,
2013-03-06 15:49:00,35.5,33.1,30.02,NW,304,2.0,2.0,91,0.00,,,0.12,Wunderground v.1.13,2013-03-06 20:49:00,
2013-03-06 16:00:00,35.5,33.4,30.03,WNW,298,1.0,1.0,92,0.00,,,0.13,Wunderground v.1.13,2013-03-06 21:00:00,
2013-03-06 16:09:00,35.5,33.1,30.04,WNW,303,1.0,4.0,91,0.00,,,0.13,Wunderground v.1.13,2013-03-06 21:09:00,
2013-03-06 16:20:00,35.6,33.2,30.04,NW,309,1.0,1.0,91,0.00,,,0.13,Wunderground v.1.13,2013-03-06 21:20:00,
2013-03-06 16:30:00,35.5,33.4,30.04,West,262,1.0,1.0,92,0.00,,,0.13,Wunderground v.1.13,2013-03-06 21:30:00,
2013-03-06 16:40:00,35.5,33.1,30.05,NNW,336,1.0,1.0,91,0.00,,,0.13,Wunderground v.1.13,2013-03-06 21:40:00,
2013-03-06 16:50:00,35.5,33.1,30.05,NW,315,1.0,2.0,91,0.00,,,0.13,Wunderground v.1.13,2013-03-06 21:50:00,
2013-03-06 17:00:00,35.4,33.3,30.06,NW,305,1.0,2.0,92,0.00,,,0.13,Wunderground v.1.13,2013-03-06 22:00:00,
2013-03-06 17:10:00,35.5,33.1,30.07,WNW,296,1.0,1.0,91,0.00,,,0.13,Wunderground v.1.13,2013-03-06 22:10:00,
2013-03-06 17:19:00,35.5,33.4,30.07,NW,317,1.0,1.0,92,0.00,,,0.13,Wunderground v.1.13,2013-03-06 22:19:00,
2013-03-06 17:30:00,35.4,33.3,30.08,NW,313,1.0,2.0,92,0.00,,,0.13,Wunderground v.1.13,2013-03-06 22:30:00,
2013-03-06 17:40:00,35.5,33.4,30.08,NW,311,1.0,1.0,92,0.00,,,0.13,Wunderground v.1.13,2013-03-06 22:40:00,
2013-03-06 17:50:00,35.3,33.2,30.08,NW,316,1.0,1.0,92,0.00,,,0.13,Wunderground v.1.13,2013-03-06 22:50:00,
2013-03-06 18:00:00,35.2,33.4,30.08,NW,313,1.0,1.0,93,0.00,,,0.13,Wunderground v.1.13,2013-03-06 23:00:00,
2013-03-06 18:09:00,35.1,33.3,30.08,NW,313,1.0,1.0,93,0.00,,,0.13,Wunderground v.1.13,2013-03-06 23:09:00,
2013-03-06 18:19:00,35.0,33.4,30.09,WNW,295,0.0,0.0,94,0.00,,,0.13,Wunderground v.1.13,2013-03-06 23:19:00,
2013-03-06 18:30:00,34.7,33.4,30.09,WNW,295,0.0,0.0,95,0.00,,,0.13,Wunderground v.1.13,2013-03-06 23:30:00,
2013-03-06 18:40:00,34.6,33.3,30.09,WNW,295,1.0,1.0,95,0.00,,,0.13,Wunderground v.1.13,2013-03-06 23:40:00,
2013-03-06 18:50:00,34.5,33.5,30.10,NW,313,1.0,2.0,96,0.00,,,0.13,Wunderground v.1.13,2013-03-06 23:50:00,
2013-03-06 19:00:00,34.5,33.5,30.10,NW,314,2.0,2.0,96,0.00,,,0.13,Wunderground v.1.13,2013-03-07 00:00:00,
2013-03-06 19:10:00,34.5,33.5,30.10,NW,304,2.0,2.0,96,0.00,,,0.13,Wunderground v.1.13,2013-03-07 00:10:00,
2013-03-06 19:19:00,34.7,33.4,30.10,NW,314,2.0,2.0,95,0.00,,,0.13,Wunderground v.1.13,2013-03-07 00:19:00,
2013-03-06 19:29:00,34.7,33.4,30.11,NW,312,1.0,1.0,95,0.00,,,0.13,Wunderground v.1.13,2013-03-07 00:29:00,
2013-03-06 19:30:00,34.7,33.7,30.11,NW,315,1.0,3.0,96,0.00,,,-99.99,WeatherLink 6.0.2,2013-03-07 00:30:00,
2013-03-06 19:40:00,34.7,33.4,30.11,NW,317,1.0,1.0,95,0.00,,,0.13,Wunderground v.1.13,2013-03-07 00:40:00,
2013-03-06 19:50:00,34.7,33.4,30.11,NW,306,1.0,1.0,95,0.00,,,0.13,Wunderground v.1.13,2013-03-07 00:50:00,
2013-03-06 20:00:00,34.7,33.4,30.12,WNW,302,1.0,1.0,95,0.00,,,0.13,Wunderground v.1.13,2013-03-07 01:00:00,
2013-03-06 20:10:00,34.8,33.5,30.12,NW,313,2.0,2.0,95,0.00,,,0.13,Wunderground v.1.13,2013-03-07 01:10:00,
2013-03-06 20:20:00,34.9,33.6,30.12,WNW,296,1.0,1.0,95,0.00,,,0.13,Wunderground v.1.13,2013-03-07 01:20:00,
2013-03-06 20:29:00,34.9,33.3,30.12,WNW,302,1.0,1.0,94,0.00,,,0.13,Wunderground v.1.13,2013-03-07 01:29:00,
2013-03-06 20:30:00,34.9,33.3,30.12,WNW,292,1.0,5.0,94,0.00,,,-99.99,WeatherLink 6.0.2,2013-03-07 01:30:00,
2013-03-06 20:40:00,34.9,33.3,30.13,NW,318,1.0,1.0,94,0.00,,,0.14,Wunderground v.1.13,2013-03-07 01:40:00,
2013-03-06 20:50:00,34.9,33.3,30.13,NW,321,1.0,1.0,94,0.00,,,0.14,Wunderground v.1.13,2013-03-07 01:50:00,
2013-03-06 21:00:00,35.0,33.4,30.13,NW,311,1.0,2.0,94,0.00,,,0.14,Wunderground v.1.13,2013-03-07 02:00:00,
2013-03-06 21:10:00,35.1,33.3,30.14,WNW,300,1.0,1.0,93,0.00,,,0.14,Wunderground v.1.13,2013-03-07 02:10:00,
2013-03-06 21:19:00,35.0,33.2,30.14,NW,308,1.0,1.0,93,0.00,,,0.14,Wunderground v.1.13,2013-03-07 02:19:00,
2013-03-06 21:30:00,35.1,33.3,30.15,NW,311,1.0,1.0,93,0.00,,,0.14,Wunderground v.1.13,2013-03-07 02:30:00,
2013-03-06 21:40:00,35.1,33.3,30.15,WNW,301,1.0,1.0,93,0.00,,,0.14,Wunderground v.1.13,2013-03-07 02:40:00,
2013-03-06 21:49:00,35.0,33.4,30.15,NW,313,1.0,1.0,94,0.00,,,0.14,Wunderground v.1.13,2013-03-07 02:49:00,
2013-03-06 22:00:00,35.0,33.2,30.15,NW,316,1.0,1.0,93,0.00,,,0.14,Wunderground v.1.13,2013-03-07 03:00:00,
2013-03-06 22:10:00,35.0,33.4,30.15,NW,317,1.0,1.0,94,0.00,,,0.14,Wunderground v.1.13,2013-03-07 03:10:00,
2013-03-06 22:20:00,35.1,33.3,30.15,NW,315,1.0,1.0,93,0.00,,,0.14,Wunderground v.1.13,2013-03-07 03:20:00,
2013-03-06 22:30:00,35.1,33.3,30.15,NW,307,0.0,1.0,93,0.00,,,0.14,Wunderground v.1.13,2013-03-07 03:30:00,
2013-03-06 22:40:00,35.1,33.3,30.15,NW,307,0.0,0.0,93,0.00,,,0.14,Wunderground v.1.13,2013-03-07 03:40:00,
2013-03-06 22:50:00,35.0,33.2,30.15,NW,308,0.0,0.0,93,0.00,,,0.14,Wunderground v.1.13,2013-03-07 03:50:00,
2013-03-06 23:00:00,35.0,33.4,30.15,NW,308,0.0,0.0,94,0.00,,,0.14,Wunderground v.1.13,2013-03-07 04:00:00,
2013-03-06 23:09:00,35.0,33.4,30.15,NW,315,0.0,0.0,94,0.00,,,0.14,Wunderground v.1.13,2013-03-07 04:09:00,
2013-03-06 23:20:00,35.1,33.3,30.15,WNW,302,1.0,1.0,93,0.00,,,0.14,Wunderground v.1.13,2013-03-07 04:20:00,
2013-03-06 23:29:00,35.1,33.5,30.14,NW,307,1.0,1.0,94,0.00,,,0.14,Wunderground v.1.13,2013-03-07 04:29:00,
2013-03-06 23:30:00,35.1,33.3,30.15,NW,315,1.0,4.0,93,0.00,,,-99.99,WeatherLink 6.0.2,2013-03-07 04:30:00,
2013-03-06 23:40:00,35.1,33.5,30.14,NNW,327,1.0,2.0,94,0.00,,,0.14,Wunderground v.1.13,2013-03-07 04:40:00,
2013-03-06 23:49:00,35.2,33.4,30.14,NW,317,1.0,1.0,93,0.00,,,0.14,Wunderground v.1.13,2013-03-07 04:49:00,